Location: Iesi
(43.5167°N, 13.2333°E)
Time: 02:29:03
(UTC+00:00)

SL-16 R/B - Pass Details

Date: 08 August 2020
Orbit: 843 x 845 km, 71.0° (Epoch: 25 September)

Event Time Altitude Azimuth Distance (km) Brightness Sun altitude
Rises 21:35:21 0° 335° (NNW) 3,414 6.7 -26.6°
Reaches altitude 10° 21:37:48 10° 335° (NNW) 2,475 5.6 -26.8°
Maximum altitude 21:43:30 89° 64° (ENE) 852 2.1 -27.3°
Enters shadow 21:43:39 86° 145° (SE) 854 2.0 -27.3°
